Location: Devore Heights
(34.2372°N, 117.4156°W)
Time: 00:37:56
(UTC+00:00)

Altair - Pass Details

Date: 21 September 2024
Orbit: 1501 x 1682 km, 47.2° (Epoch: 09 October)

Event Time Altitude Azimuth Distance (km) Brightness Sun altitude
Exits shadow 11:13:50 26° 307° (NW) 2,873 8.6 -29.7°
Maximum altitude 11:18:48 39° 356° (N) 2,331 8.5 -28.8°
Drops below altitude 10° 11:28:10 10° 63° (ENE) 3,945 10.6 -27.0°
Sets 11:31:41 0° 71° (ENE) 4,928 11.5 -26.3°
